TVF18KV LFRS-GMAD

Flight info

Callsign TVF18KV
Flight time 2h 50m
Altitude 35000
Route ERIGA DCT FUJTI DCT PEPET DCT BAKUP DCT BATAX DCT ALAGU DCT GIMAL DCT AMSEL UR722 CSD UR975 EKTAL
Aircraft B738/M-SDFGHIJ1RWXY/LB1

Departure

Time 2026-04-22 08:39
Airport Nantes Atlantique Airport (LFRS)

Arrival

Time 2026-04-22 11:29
Airport Al Massira Airport (GMAD)
Time Latitude Longitude Altitude Speed Heading
2026-04-22 08:00 47.15714 -1.60268 89 ft 0 kts 44°
2026-04-22 08:29 47.15699 -1.60289 93 ft 4 kts 45°
2026-04-22 08:29 47.15679 -1.60317 89 ft 4 kts 38°
2026-04-22 08:29 47.15658 -1.60334 89 ft 4 kts 352°
2026-04-22 08:30 47.15641 -1.60319 90 ft 4 kts 318°
2026-04-22 08:30 47.15634 -1.60310 92 ft 0 kts 318°
2026-04-22 08:33 47.15636 -1.60313 90 ft 1 kts 319°
2026-04-22 08:34 47.15648 -1.60327 89 ft 5 kts 320°
2026-04-22 08:34 47.15678 -1.60365 89 ft 6 kts 319°
2026-04-22 08:34 47.15722 -1.60436 89 ft 12 kts 291°
2026-04-22 08:34 47.15682 -1.60528 88 ft 12 kts 208°
2026-04-22 08:35 47.15597 -1.60593 91 ft 17 kts 208°
2026-04-22 08:35 47.15473 -1.60690 89 ft 23 kts 207°
2026-04-22 08:35 47.15331 -1.60796 91 ft 23 kts 208°
2026-04-22 08:35 47.15193 -1.60901 91 ft 22 kts 208°
2026-04-22 08:36 47.15060 -1.61002 90 ft 21 kts 207°
2026-04-22 08:36 47.14924 -1.61106 88 ft 22 kts 207°
2026-04-22 08:36 47.14784 -1.61212 90 ft 24 kts 207°
2026-04-22 08:36 47.14627 -1.61330 89 ft 26 kts 207°
2026-04-22 08:37 47.14465 -1.61455 88 ft 26 kts 207°
2026-04-22 08:37 47.14298 -1.61582 84 ft 28 kts 207°
2026-04-22 08:37 47.14180 -1.61681 84 ft 16 kts 227°
2026-04-22 08:37 47.14140 -1.61826 84 ft 15 kts 261°
2026-04-22 08:38 47.14201 -1.61917 84 ft 14 kts 13°
2026-04-22 08:38 47.14242 -1.61891 84 ft 0 kts 27°
2026-04-22 08:38 47.14244 -1.61889 83 ft 6 kts 27°
2026-04-22 08:38 47.14495 -1.61697 90 ft 75 kts 27°
2026-04-22 08:39 47.15148 -1.61199 86 ft 135 kts 27°
2026-04-22 08:39 47.16041 -1.60459 479 ft 152 kts 28°
2026-04-22 08:39 47.17161 -1.60245 965 ft 180 kts 353°
2026-04-22 08:39 47.18302 -1.61337 1412 ft 208 kts 321°
2026-04-22 08:40 47.19293 -1.62980 1735 ft 224 kts 310°
2026-04-22 08:40 47.20021 -1.65023 2282 ft 225 kts 296°
2026-04-22 08:40 47.20640 -1.67117 2855 ft 220 kts 295°
2026-04-22 08:40 47.21212 -1.69208 3490 ft 222 kts 291°
2026-04-22 08:41 47.21802 -1.71410 3864 ft 243 kts 291°
2026-04-22 08:41 47.22419 -1.73855 4104 ft 263 kts 281°
2026-04-22 08:41 47.22496 -1.76463 4916 ft 253 kts 259°
2026-04-22 08:41 47.21853 -1.78923 5238 ft 271 kts 234°
2026-04-22 08:42 47.20810 -1.81296 5877 ft 276 kts 236°
2026-04-22 08:42 47.19850 -1.83725 6779 ft 274 kts 240°
2026-04-22 08:42 47.18964 -1.86220 7569 ft 276 kts 241°
2026-04-22 08:42 47.18093 -1.88731 8363 ft 277 kts 241°
2026-04-22 08:43 47.17212 -1.91267 9074 ft 281 kts 241°
2026-04-22 08:43 47.16336 -1.93777 9901 ft 280 kts 242°
2026-04-22 08:43 47.15432 -1.96365 10398 ft 292 kts 241°
2026-04-22 08:43 47.14379 -1.99039 10563 ft 314 kts 232°
2026-04-22 08:44 47.12914 -2.01537 10760 ft 333 kts 226°
2026-04-22 08:44 47.11278 -2.04058 11139 ft 344 kts 225°
2026-04-22 08:44 47.09629 -2.06599 11959 ft 344 kts 226°
2026-04-22 08:44 47.07995 -2.09171 12685 ft 345 kts 226°
2026-04-22 08:45 47.06369 -2.11780 13361 ft 349 kts 227°
2026-04-22 08:45 47.04723 -2.14455 13899 ft 355 kts 227°
2026-04-22 08:45 47.03059 -2.17176 14417 ft 360 kts 227°
2026-04-22 08:45 47.01402 -2.19896 15181 ft 358 kts 227°
2026-04-22 08:46 46.99735 -2.22629 15741 ft 362 kts 227°
2026-04-22 08:46 46.98048 -2.25391 16285 ft 367 kts 227°
2026-04-22 08:46 46.96301 -2.28158 16771 ft 371 kts 223°
2026-04-22 08:46 46.94151 -2.30209 17506 ft 368 kts 206°
2026-04-22 08:47 46.91857 -2.31847 18217 ft 367 kts 207°
2026-04-22 08:47 46.89564 -2.33567 18601 ft 375 kts 208°
2026-04-22 08:47 46.87227 -2.35350 18916 ft 382 kts 208°
2026-04-22 08:47 46.84885 -2.37186 19440 ft 384 kts 210°
2026-04-22 08:48 46.82568 -2.39168 19838 ft 389 kts 211°
2026-04-22 08:48 46.80250 -2.41225 20295 ft 391 kts 212°
2026-04-22 08:48 46.77922 -2.43307 20781 ft 392 kts 212°
2026-04-22 08:48 46.75596 -2.45380 21403 ft 391 kts 212°
2026-04-22 08:49 46.73256 -2.47452 21772 ft 396 kts 212°
2026-04-22 08:49 46.70904 -2.49523 22403 ft 393 kts 212°
2026-04-22 08:49 46.68559 -2.51579 22905 ft 395 kts 212°
2026-04-22 08:49 46.66189 -2.53650 23195 ft 402 kts 212°
2026-04-22 08:50 46.63782 -2.55750 23606 ft 403 kts 212°
2026-04-22 08:50 46.61421 -2.57806 24171 ft 400 kts 212°
2026-04-22 08:50 46.59039 -2.59878 24557 ft 401 kts 213°
2026-04-22 08:50 46.56631 -2.61972 24868 ft 404 kts 213°
2026-04-22 08:51 46.54216 -2.64069 25258 ft 405 kts 212°
2026-04-22 08:51 46.51786 -2.66178 25563 ft 408 kts 212°
2026-04-22 08:51 46.49330 -2.68306 25825 ft 412 kts 212°
2026-04-22 08:51 46.46871 -2.70434 26174 ft 413 kts 212°
2026-04-22 08:52 46.44392 -2.72579 26482 ft 416 kts 213°
2026-04-22 08:52 46.41894 -2.74737 26739 ft 419 kts 213°
2026-04-22 08:52 46.39397 -2.76892 27152 ft 418 kts 214°
2026-04-22 08:52 46.36884 -2.79060 27396 ft 422 kts 213°
2026-04-22 08:53 46.34347 -2.81245 27607 ft 426 kts 213°
2026-04-22 08:53 46.31797 -2.83437 27870 ft 428 kts 213°
2026-04-22 08:53 46.29225 -2.85645 28115 ft 431 kts 213°
2026-04-22 08:53 46.26633 -2.87869 28323 ft 434 kts 213°
2026-04-22 08:54 46.24041 -2.90087 28704 ft 433 kts 213°
2026-04-22 08:54 46.21440 -2.92310 28974 ft 435 kts 213°
2026-04-22 08:54 46.18830 -2.94539 29281 ft 436 kts 213°
2026-04-22 08:54 46.16223 -2.96763 29656 ft 435 kts 214°
2026-04-22 08:55 46.13614 -2.98987 29917 ft 436 kts 213°
2026-04-22 08:55 46.10997 -3.01216 30145 ft 438 kts 213°
2026-04-22 08:55 46.08374 -3.03447 30406 ft 438 kts 213°
2026-04-22 08:55 46.05756 -3.05672 30717 ft 437 kts 213°
2026-04-22 08:56 46.03143 -3.07889 31053 ft 435 kts 213°
2026-04-22 08:56 46.00543 -3.10093 31385 ft 433 kts 213°
2026-04-22 08:56 45.97950 -3.12289 31658 ft 433 kts 213°
2026-04-22 08:56 45.95354 -3.14486 31923 ft 432 kts 213°
2026-04-22 08:57 45.92767 -3.16672 32256 ft 430 kts 213°
2026-04-22 08:57 45.90195 -3.18843 32634 ft 427 kts 213°
2026-04-22 08:57 45.87636 -3.20999 32916 ft 426 kts 213°
2026-04-22 08:57 45.85076 -3.23156 33142 ft 427 kts 214°
2026-04-22 08:58 45.82519 -3.25309 33414 ft 426 kts 214°
2026-04-22 08:58 45.79965 -3.27456 33705 ft 425 kts 214°
2026-04-22 08:58 45.77421 -3.29592 33976 ft 423 kts 214°
2026-04-22 08:58 45.74883 -3.31721 34188 ft 423 kts 214°
2026-04-22 08:59 45.72343 -3.33849 34342 ft 423 kts 214°
2026-04-22 08:59 45.69797 -3.35980 34504 ft 424 kts 214°
2026-04-22 08:59 45.67250 -3.38111 34692 ft 424 kts 214°
2026-04-22 08:59 45.64704 -3.40237 34895 ft 423 kts 214°
2026-04-22 09:00 45.62151 -3.42367 34885 ft 427 kts 214°
2026-04-22 09:00 45.57038 -3.46626 34909 ft 424 kts 214°
2026-04-22 09:01 45.51992 -3.50819 34908 ft 421 kts 214°
2026-04-22 09:01 45.46950 -3.55001 34903 ft 418 kts 214°
2026-04-22 09:02 45.41931 -3.59155 34910 ft 416 kts 214°
2026-04-22 09:02 45.36925 -3.63292 34908 ft 416 kts 214°
2026-04-22 09:03 45.31909 -3.67427 34905 ft 417 kts 213°
2026-04-22 09:03 45.26874 -3.71571 34915 ft 419 kts 213°
2026-04-22 09:04 45.21808 -3.75731 34922 ft 422 kts 213°
2026-04-22 09:04 45.16705 -3.79912 34922 ft 425 kts 213°
2026-04-22 09:05 45.11569 -3.84112 34916 ft 428 kts 213°
2026-04-22 09:05 45.06420 -3.88344 34927 ft 428 kts 214°
2026-04-22 09:06 45.01325 -3.92713 34915 ft 428 kts 215°
2026-04-22 09:06 44.96252 -3.97091 34919 ft 427 kts 214°
2026-04-22 09:07 44.91190 -4.01432 34911 ft 425 kts 214°
2026-04-22 09:07 44.86144 -4.05738 34921 ft 423 kts 214°
2026-04-22 09:08 44.81120 -4.10013 34923 ft 421 kts 214°
2026-04-22 09:08 44.76102 -4.14274 34938 ft 420 kts 214°
2026-04-22 09:09 44.71100 -4.18514 34933 ft 420 kts 214°
2026-04-22 09:09 44.66101 -4.22743 34940 ft 419 kts 214°
2026-04-22 09:10 44.61098 -4.26966 34944 ft 420 kts 214°
2026-04-22 09:10 44.56932 -4.30477 34947 ft 420 kts 214°
2026-04-22 09:11 44.51912 -4.34699 34935 ft 421 kts 214°
2026-04-22 09:11 44.46882 -4.38923 34952 ft 422 kts 214°
2026-04-22 09:12 44.41832 -4.43153 34956 ft 424 kts 214°
2026-04-22 09:12 44.36781 -4.47411 34961 ft 425 kts 214°
2026-04-22 09:13 44.31721 -4.51702 34959 ft 426 kts 214°
2026-04-22 09:13 44.26649 -4.55996 34965 ft 427 kts 214°
2026-04-22 09:14 44.21573 -4.60280 34967 ft 425 kts 214°
2026-04-22 09:14 44.16556 -4.64501 34959 ft 419 kts 214°
2026-04-22 09:15 44.11575 -4.68686 34967 ft 417 kts 214°
2026-04-22 09:15 44.06642 -4.72823 34969 ft 416 kts 214°
2026-04-22 09:16 44.01684 -4.76974 34980 ft 416 kts 214°
2026-04-22 09:16 43.96718 -4.81122 34985 ft 417 kts 214°
2026-04-22 09:17 43.91734 -4.85278 34982 ft 419 kts 214°
2026-04-22 09:17 43.86730 -4.89441 34988 ft 420 kts 214°
2026-04-22 09:18 43.81702 -4.93616 34991 ft 422 kts 214°
2026-04-22 09:18 43.76659 -4.97795 34999 ft 423 kts 214°
2026-04-22 09:19 43.71605 -5.01973 34986 ft 423 kts 214°
2026-04-22 09:19 43.66555 -5.06141 34993 ft 422 kts 214°
2026-04-22 09:20 43.61515 -5.10292 35000 ft 421 kts 214°
2026-04-22 09:20 43.56482 -5.14429 34993 ft 420 kts 214°
2026-04-22 09:21 43.51460 -5.18549 34995 ft 420 kts 214°
2026-04-22 09:21 43.46447 -5.22654 34988 ft 419 kts 214°
2026-04-22 09:22 43.41442 -5.26745 34987 ft 419 kts 214°
2026-04-22 09:22 43.36434 -5.30830 35002 ft 418 kts 214°
2026-04-22 09:23 43.31422 -5.34911 34998 ft 419 kts 214°
2026-04-22 09:23 43.26407 -5.38985 34986 ft 419 kts 214°
2026-04-22 09:24 43.21415 -5.43034 34986 ft 420 kts 214°
2026-04-22 09:24 43.16390 -5.47102 34985 ft 419 kts 214°
2026-04-22 09:25 43.11364 -5.51158 34980 ft 419 kts 214°
2026-04-22 09:25 43.06347 -5.55203 34983 ft 418 kts 214°
2026-04-22 09:26 43.01333 -5.59240 34986 ft 418 kts 214°
2026-04-22 09:26 42.96320 -5.63268 34986 ft 418 kts 214°
2026-04-22 09:27 42.91309 -5.67285 34963 ft 418 kts 214°
2026-04-22 09:27 42.86299 -5.71293 34986 ft 417 kts 213°
2026-04-22 09:28 42.81290 -5.75293 35003 ft 417 kts 213°
2026-04-22 09:28 42.76272 -5.79294 34999 ft 418 kts 213°
2026-04-22 09:29 42.71241 -5.83296 35002 ft 419 kts 213°
2026-04-22 09:29 42.66204 -5.87296 35012 ft 420 kts 213°
2026-04-22 09:30 42.61157 -5.91296 35006 ft 420 kts 213°
2026-04-22 09:30 42.56103 -5.95294 34996 ft 421 kts 213°
2026-04-22 09:31 42.51043 -5.99289 34994 ft 421 kts 213°
2026-04-22 09:31 42.46010 -6.03256 34988 ft 421 kts 213°
2026-04-22 09:32 42.40942 -6.07242 34974 ft 421 kts 213°
2026-04-22 09:32 42.35876 -6.11220 34992 ft 421 kts 213°
2026-04-22 09:33 42.30810 -6.15189 34978 ft 421 kts 213°
2026-04-22 09:33 42.25748 -6.19149 34984 ft 420 kts 213°
2026-04-22 09:34 42.20691 -6.23096 34984 ft 419 kts 213°
2026-04-22 09:34 42.15641 -6.27032 34989 ft 419 kts 213°
2026-04-22 09:35 42.08072 -6.32916 34995 ft 419 kts 213°
2026-04-22 09:35 42.03027 -6.36830 34992 ft 418 kts 213°
2026-04-22 09:36 41.97984 -6.40735 35002 ft 418 kts 213°
2026-04-22 09:36 41.92939 -6.44633 35007 ft 418 kts 213°
2026-04-22 09:37 41.87899 -6.48522 35014 ft 418 kts 212°
2026-04-22 09:37 41.82885 -6.52383 35007 ft 418 kts 212°
2026-04-22 09:38 41.77845 -6.56259 34999 ft 417 kts 212°
2026-04-22 09:38 41.72808 -6.60123 35010 ft 417 kts 212°
2026-04-22 09:39 41.67431 -6.63093 35015 ft 423 kts 196°
2026-04-22 09:39 41.61660 -6.64733 35021 ft 424 kts 195°
2026-04-22 09:40 41.55881 -6.66344 35010 ft 424 kts 195°
2026-04-22 09:40 41.50101 -6.67983 35012 ft 425 kts 195°
2026-04-22 09:41 41.44323 -6.69639 35026 ft 425 kts 195°
2026-04-22 09:41 41.38546 -6.71300 35025 ft 425 kts 196°
2026-04-22 09:42 41.32755 -6.72962 35018 ft 426 kts 195°
2026-04-22 09:42 41.26961 -6.74622 35028 ft 426 kts 195°
2026-04-22 09:43 41.21158 -6.76281 35029 ft 427 kts 195°
2026-04-22 09:43 41.15351 -6.77938 35032 ft 427 kts 195°
2026-04-22 09:44 41.09537 -6.79594 35031 ft 427 kts 195°
2026-04-22 09:44 41.03728 -6.81246 35035 ft 427 kts 195°
2026-04-22 09:45 40.97917 -6.82896 35036 ft 427 kts 195°
2026-04-22 09:45 40.92100 -6.84543 35028 ft 428 kts 195°
2026-04-22 09:46 40.86281 -6.86193 35033 ft 427 kts 195°
2026-04-22 09:46 40.80462 -6.87833 35027 ft 428 kts 195°
2026-04-22 09:47 40.74645 -6.89470 35032 ft 427 kts 195°
2026-04-22 09:47 40.68833 -6.91105 35028 ft 427 kts 195°
2026-04-22 09:48 40.63018 -6.92737 35024 ft 427 kts 195°
2026-04-22 09:48 40.57246 -6.94355 35036 ft 427 kts 195°
2026-04-22 09:49 40.51437 -6.95980 35036 ft 427 kts 195°
2026-04-22 09:49 40.45628 -6.97603 35033 ft 427 kts 195°
2026-04-22 09:50 40.39816 -6.99223 35034 ft 427 kts 195°
2026-04-22 09:50 40.34002 -7.00841 35038 ft 427 kts 195°
2026-04-22 09:51 40.28186 -7.02457 35040 ft 427 kts 195°
2026-04-22 09:51 40.22367 -7.04071 35040 ft 427 kts 195°
2026-04-22 09:52 40.16548 -7.05681 35043 ft 427 kts 195°
2026-04-22 09:52 40.10727 -7.07290 35037 ft 428 kts 195°
2026-04-22 09:53 40.04902 -7.08897 35045 ft 428 kts 195°
2026-04-22 09:53 39.99078 -7.10501 35044 ft 428 kts 195°
2026-04-22 09:54 39.93255 -7.12101 35055 ft 428 kts 195°
2026-04-22 09:54 39.87426 -7.13701 35042 ft 428 kts 195°
2026-04-22 09:55 39.81596 -7.15298 35049 ft 428 kts 195°
2026-04-22 09:55 39.75762 -7.16893 35040 ft 428 kts 195°
2026-04-22 09:56 39.69925 -7.18487 35046 ft 429 kts 195°
2026-04-22 09:56 39.64085 -7.20079 35045 ft 429 kts 195°
2026-04-22 09:57 39.58236 -7.21670 35050 ft 429 kts 195°
2026-04-22 09:57 39.52386 -7.23259 35050 ft 430 kts 195°
2026-04-22 09:58 39.47480 -7.24302 35029 ft 435 kts 181°
2026-04-22 09:58 39.43501 -7.24351 35019 ft 429 kts 195°
2026-04-22 09:58 39.40638 -7.25348 35054 ft 425 kts 200°
2026-04-22 09:59 39.34968 -7.27572 35029 ft 427 kts 198°
2026-04-22 09:59 39.30148 -7.29181 35044 ft 427 kts 196°
2026-04-22 10:00 39.24337 -7.30855 35050 ft 428 kts 195°
2026-04-22 10:00 39.18499 -7.32428 35056 ft 429 kts 195°
2026-04-22 10:01 39.12652 -7.33986 35047 ft 429 kts 195°
2026-04-22 10:01 39.06800 -7.35548 35055 ft 429 kts 195°
2026-04-22 10:02 39.00984 -7.37102 35043 ft 430 kts 195°
2026-04-22 10:02 38.95134 -7.38664 35050 ft 430 kts 195°
2026-04-22 10:03 38.89276 -7.40226 35047 ft 430 kts 195°
2026-04-22 10:03 38.83423 -7.41785 35048 ft 430 kts 195°
2026-04-22 10:04 38.77566 -7.43341 35039 ft 430 kts 195°
2026-04-22 10:04 38.71707 -7.44896 35050 ft 430 kts 195°
2026-04-22 10:05 38.65843 -7.46449 35042 ft 431 kts 195°
2026-04-22 10:05 38.59972 -7.48001 35044 ft 431 kts 195°
2026-04-22 10:06 38.54101 -7.49551 35050 ft 431 kts 195°
2026-04-22 10:06 38.48221 -7.51101 35047 ft 432 kts 195°
2026-04-22 10:07 38.42338 -7.52649 35038 ft 432 kts 195°
2026-04-22 10:07 38.36449 -7.54195 35034 ft 432 kts 195°
2026-04-22 10:08 38.30562 -7.55739 35047 ft 432 kts 195°
2026-04-22 10:08 38.24663 -7.57284 35044 ft 433 kts 195°
2026-04-22 10:09 38.18764 -7.58826 35046 ft 433 kts 195°
2026-04-22 10:09 38.12861 -7.60367 35057 ft 433 kts 195°
2026-04-22 10:10 38.07002 -7.61918 35047 ft 433 kts 197°
2026-04-22 10:10 38.01150 -7.63666 35049 ft 432 kts 197°
2026-04-22 10:11 37.95319 -7.65455 35041 ft 431 kts 197°
2026-04-22 10:11 37.89489 -7.67224 35038 ft 430 kts 198°
2026-04-22 10:12 37.83671 -7.68971 35045 ft 429 kts 197°
2026-04-22 10:12 37.77862 -7.70708 35047 ft 429 kts 197°
2026-04-22 10:13 37.72060 -7.72439 35046 ft 428 kts 197°
2026-04-22 10:13 37.66262 -7.74167 35038 ft 428 kts 198°
2026-04-22 10:14 37.60465 -7.75891 35047 ft 428 kts 198°
2026-04-22 10:14 37.54667 -7.77614 35045 ft 428 kts 198°
2026-04-22 10:15 37.48862 -7.79336 35044 ft 429 kts 198°
2026-04-22 10:15 37.43052 -7.81056 35033 ft 429 kts 198°
2026-04-22 10:16 37.37236 -7.82775 35046 ft 429 kts 198°
2026-04-22 10:16 37.31414 -7.84494 35041 ft 430 kts 198°
2026-04-22 10:17 37.25580 -7.86213 35036 ft 431 kts 198°
2026-04-22 10:17 37.19746 -7.87929 35026 ft 431 kts 198°
2026-04-22 10:18 37.13909 -7.89644 35024 ft 431 kts 198°
2026-04-22 10:18 37.08068 -7.91357 35019 ft 431 kts 198°
2026-04-22 10:19 37.02226 -7.93068 35021 ft 431 kts 198°
2026-04-22 10:19 36.96391 -7.94774 35003 ft 430 kts 198°
2026-04-22 10:20 36.90604 -7.96463 35019 ft 430 kts 198°
2026-04-22 10:20 36.84786 -7.98159 35027 ft 429 kts 198°
2026-04-22 10:21 36.78972 -7.99842 35033 ft 430 kts 196°
2026-04-22 10:21 36.72950 -8.00200 35029 ft 441 kts 178°
2026-04-22 10:22 36.66861 -7.99215 35037 ft 442 kts 177°
2026-04-22 10:22 36.60772 -7.98197 35048 ft 442 kts 178°
2026-04-22 10:23 36.54676 -7.97223 35046 ft 442 kts 178°
2026-04-22 10:23 36.48575 -7.96275 35046 ft 442 kts 178°
2026-04-22 10:24 36.42457 -7.95331 35039 ft 443 kts 178°
2026-04-22 10:24 36.36331 -7.94386 35046 ft 444 kts 178°
2026-04-22 10:25 36.30198 -7.93441 35044 ft 445 kts 178°
2026-04-22 10:25 36.24049 -7.92494 35045 ft 445 kts 178°
2026-04-22 10:26 36.17892 -7.91547 35043 ft 446 kts 178°
2026-04-22 10:26 36.11728 -7.90601 35046 ft 447 kts 178°
2026-04-22 10:27 36.05557 -7.89655 35048 ft 447 kts 178°
2026-04-22 10:27 35.99377 -7.88710 35054 ft 447 kts 178°
2026-04-22 10:28 35.93236 -7.87864 35039 ft 446 kts 180°
2026-04-22 10:28 35.87049 -7.87341 35043 ft 445 kts 181°
2026-04-22 10:29 35.80866 -7.86844 35041 ft 446 kts 181°
2026-04-22 10:29 35.74672 -7.86304 35042 ft 446 kts 181°
2026-04-22 10:30 35.68481 -7.85744 35042 ft 446 kts 181°
2026-04-22 10:30 35.62292 -7.85182 35044 ft 446 kts 181°
2026-04-22 10:31 35.56105 -7.84623 35040 ft 446 kts 181°
2026-04-22 10:31 35.49921 -7.84066 35034 ft 445 kts 181°
2026-04-22 10:32 35.43743 -7.83511 35037 ft 445 kts 181°
2026-04-22 10:32 35.37569 -7.82969 35038 ft 445 kts 181°
2026-04-22 10:33 35.31393 -7.82454 35038 ft 445 kts 181°
2026-04-22 10:33 35.25222 -7.81943 35038 ft 445 kts 181°
2026-04-22 10:34 35.19048 -7.81428 35042 ft 445 kts 181°
2026-04-22 10:34 35.12881 -7.80913 35038 ft 445 kts 181°
2026-04-22 10:35 35.06694 -7.80397 35034 ft 445 kts 181°
2026-04-22 10:35 35.00510 -7.79882 35033 ft 446 kts 181°
2026-04-22 10:36 34.94325 -7.79368 35031 ft 446 kts 181°
2026-04-22 10:36 34.88129 -7.78854 35035 ft 446 kts 181°
2026-04-22 10:37 34.78823 -7.78083 35033 ft 447 kts 181°
2026-04-22 10:38 34.72616 -7.77575 35020 ft 447 kts 181°
2026-04-22 10:38 34.66404 -7.77131 35032 ft 447 kts 181°
2026-04-22 10:39 34.60183 -7.76705 35030 ft 448 kts 181°
2026-04-22 10:39 34.54006 -7.76276 35029 ft 448 kts 181°
2026-04-22 10:40 34.47788 -7.75839 35013 ft 448 kts 181°
2026-04-22 10:40 34.41569 -7.75401 35026 ft 447 kts 181°
2026-04-22 10:41 34.35358 -7.74965 35029 ft 447 kts 181°
2026-04-22 10:41 34.29144 -7.74530 35026 ft 447 kts 181°
2026-04-22 10:42 34.22933 -7.74096 35013 ft 447 kts 181°
2026-04-22 10:42 34.16727 -7.73648 35024 ft 447 kts 180°
2026-04-22 10:43 34.10519 -7.73080 35024 ft 447 kts 180°
2026-04-22 10:43 34.04315 -7.72486 35022 ft 447 kts 180°
2026-04-22 10:44 33.98107 -7.71905 35020 ft 447 kts 180°
2026-04-22 10:44 33.91904 -7.71334 35004 ft 447 kts 180°
2026-04-22 10:45 33.85700 -7.70766 35012 ft 447 kts 180°
2026-04-22 10:45 33.79494 -7.70198 35011 ft 447 kts 180°
2026-04-22 10:46 33.74329 -7.69726 35001 ft 448 kts 180°
2026-04-22 10:46 33.68115 -7.69159 34988 ft 448 kts 180°
2026-04-22 10:47 33.61900 -7.68592 34994 ft 448 kts 180°
2026-04-22 10:47 33.55685 -7.68075 34994 ft 446 kts 185°
2026-04-22 10:47 33.52625 -7.68421 35004 ft 438 kts 196°
2026-04-22 10:48 33.49711 -7.69395 34995 ft 433 kts 205°
2026-04-22 10:48 33.44416 -7.72675 34978 ft 428 kts 213°
2026-04-22 10:49 33.39253 -7.76189 34986 ft 427 kts 213°
2026-04-22 10:49 33.34078 -7.79664 34995 ft 426 kts 213°
2026-04-22 10:50 33.28900 -7.83103 34998 ft 426 kts 213°
2026-04-22 10:50 33.23724 -7.86527 35000 ft 425 kts 213°
2026-04-22 10:51 33.18554 -7.89942 35000 ft 424 kts 213°
2026-04-22 10:51 33.13424 -7.93326 35003 ft 424 kts 213°
2026-04-22 10:52 33.08264 -7.96727 34993 ft 423 kts 213°
2026-04-22 10:52 33.03107 -8.00121 34994 ft 423 kts 213°
2026-04-22 10:53 32.97951 -8.03511 34994 ft 423 kts 213°
2026-04-22 10:53 32.92769 -8.06851 34994 ft 425 kts 209°
2026-04-22 10:54 32.87253 -8.09473 34980 ft 428 kts 205°
2026-04-22 10:54 32.81688 -8.11974 34991 ft 427 kts 205°
2026-04-22 10:55 32.76148 -8.14537 34987 ft 427 kts 206°
2026-04-22 10:55 32.70609 -8.17118 34988 ft 428 kts 206°
2026-04-22 10:56 32.65068 -8.19704 34985 ft 428 kts 206°
2026-04-22 10:56 32.59521 -8.22290 34972 ft 428 kts 206°
2026-04-22 10:57 32.53974 -8.24872 34978 ft 428 kts 206°
2026-04-22 10:57 32.48430 -8.27448 34981 ft 428 kts 206°
2026-04-22 10:58 32.42887 -8.30022 34973 ft 428 kts 206°
2026-04-22 10:58 32.37343 -8.32593 34979 ft 428 kts 206°
2026-04-22 10:59 32.31795 -8.35162 34969 ft 428 kts 206°
2026-04-22 10:59 32.26251 -8.37725 34971 ft 428 kts 206°
2026-04-22 11:00 32.20713 -8.40283 34965 ft 427 kts 206°
2026-04-22 11:00 32.15226 -8.42813 34828 ft 418 kts 206°
2026-04-22 11:00 32.12537 -8.44051 34537 ft 410 kts 206°
2026-04-22 11:01 32.09928 -8.45253 34137 ft 407 kts 206°
2026-04-22 11:01 32.07357 -8.46584 33739 ft 401 kts 209°
2026-04-22 11:01 32.04854 -8.48000 33311 ft 397 kts 210°
2026-04-22 11:01 32.02387 -8.49427 32928 ft 393 kts 210°
2026-04-22 11:02 31.99943 -8.50846 32528 ft 390 kts 210°
2026-04-22 11:02 31.97517 -8.52249 32152 ft 387 kts 210°
2026-04-22 11:02 31.95110 -8.53633 31779 ft 384 kts 210°
2026-04-22 11:02 31.92715 -8.55004 31406 ft 381 kts 210°
2026-04-22 11:03 31.90339 -8.56359 31040 ft 378 kts 210°
2026-04-22 11:03 31.87977 -8.57704 30674 ft 376 kts 209°
2026-04-22 11:03 31.85632 -8.59038 30313 ft 374 kts 209°
2026-04-22 11:03 31.83299 -8.60364 29939 ft 371 kts 209°
2026-04-22 11:04 31.80979 -8.61682 29519 ft 369 kts 209°
2026-04-22 11:04 31.78675 -8.62989 29121 ft 366 kts 209°
2026-04-22 11:04 31.76396 -8.64282 28757 ft 362 kts 209°
2026-04-22 11:04 31.74137 -8.65562 28369 ft 359 kts 209°
2026-04-22 11:05 31.71896 -8.66832 28015 ft 356 kts 209°
2026-04-22 11:05 31.69674 -8.68091 27647 ft 353 kts 209°
2026-04-22 11:05 31.67470 -8.69339 27286 ft 351 kts 208°
2026-04-22 11:05 31.65280 -8.70578 26929 ft 348 kts 208°
2026-04-22 11:06 31.63104 -8.71809 26586 ft 346 kts 208°
2026-04-22 11:06 31.60945 -8.73030 26242 ft 343 kts 208°
2026-04-22 11:06 31.58799 -8.74243 25898 ft 342 kts 208°
2026-04-22 11:06 31.56663 -8.75449 25545 ft 340 kts 208°
2026-04-22 11:07 31.54541 -8.76647 25203 ft 338 kts 208°
2026-04-22 11:07 31.52436 -8.77833 24865 ft 336 kts 207°
2026-04-22 11:07 31.50299 -8.78967 24521 ft 335 kts 205°
2026-04-22 11:07 31.48156 -8.80035 24162 ft 335 kts 205°
2026-04-22 11:08 31.46010 -8.81089 23829 ft 335 kts 205°
2026-04-22 11:08 31.43879 -8.82134 23469 ft 338 kts 205°
2026-04-22 11:08 31.41693 -8.83213 23083 ft 345 kts 205°
2026-04-22 11:08 31.39466 -8.84315 22703 ft 349 kts 205°
2026-04-22 11:09 31.37233 -8.85423 22322 ft 348 kts 205°
2026-04-22 11:09 31.35015 -8.86524 21947 ft 345 kts 205°
2026-04-22 11:09 31.32812 -8.87619 21588 ft 343 kts 205°
2026-04-22 11:09 31.30626 -8.88705 21237 ft 340 kts 205°
2026-04-22 11:10 31.28454 -8.89786 20884 ft 338 kts 205°
2026-04-22 11:10 31.26297 -8.90858 20535 ft 336 kts 205°
2026-04-22 11:10 31.24152 -8.91924 20195 ft 334 kts 205°
2026-04-22 11:10 31.22020 -8.92982 19851 ft 332 kts 205°
2026-04-22 11:11 31.19899 -8.94035 19521 ft 330 kts 206°
2026-04-22 11:11 31.17794 -8.95078 19176 ft 328 kts 206°
2026-04-22 11:11 31.15702 -8.96118 18821 ft 326 kts 204°
2026-04-22 11:11 31.13616 -8.97152 18498 ft 325 kts 205°
2026-04-22 11:12 31.11536 -8.98181 18133 ft 324 kts 206°
2026-04-22 11:12 31.09470 -8.99206 17757 ft 322 kts 205°
2026-04-22 11:12 31.07415 -9.00224 17397 ft 320 kts 205°
2026-04-22 11:12 31.05379 -9.01232 17073 ft 317 kts 205°
2026-04-22 11:13 31.03359 -9.02232 16743 ft 314 kts 205°
2026-04-22 11:13 31.01359 -9.03220 16418 ft 311 kts 204°
2026-04-22 11:13 30.99377 -9.04205 16082 ft 308 kts 204°
2026-04-22 11:13 30.97414 -9.05186 15744 ft 306 kts 204°
2026-04-22 11:14 30.95466 -9.06160 15415 ft 303 kts 204°
2026-04-22 11:14 30.93534 -9.07125 15117 ft 301 kts 204°
2026-04-22 11:14 30.91617 -9.08083 14765 ft 300 kts 203°
2026-04-22 11:14 30.89709 -9.09036 14448 ft 297 kts 203°
2026-04-22 11:15 30.87812 -9.09981 14149 ft 296 kts 204°
2026-04-22 11:15 30.85925 -9.10922 13841 ft 295 kts 204°
2026-04-22 11:15 30.84045 -9.11859 13497 ft 293 kts 203°
2026-04-22 11:15 30.82176 -9.12791 13162 ft 292 kts 203°
2026-04-22 11:16 30.80316 -9.13717 12835 ft 290 kts 203°
2026-04-22 11:16 30.78473 -9.14635 12525 ft 288 kts 202°
2026-04-22 11:16 30.76635 -9.15550 12217 ft 286 kts 202°
2026-04-22 11:16 30.74813 -9.16456 11904 ft 284 kts 202°
2026-04-22 11:17 30.73003 -9.17356 11609 ft 283 kts 202°
2026-04-22 11:17 30.71194 -9.18254 11298 ft 282 kts 202°
2026-04-22 11:17 30.69427 -9.19140 11023 ft 279 kts 202°
2026-04-22 11:17 30.67665 -9.20045 10786 ft 275 kts 202°
2026-04-22 11:18 30.65925 -9.20944 10545 ft 273 kts 201°
2026-04-22 11:18 30.64194 -9.21836 10324 ft 271 kts 202°
2026-04-22 11:18 30.62482 -9.22717 10155 ft 266 kts 202°
2026-04-22 11:18 30.60817 -9.23571 10038 ft 258 kts 201°
2026-04-22 11:19 30.59203 -9.24399 9931 ft 249 kts 201°
2026-04-22 11:19 30.57608 -9.25181 9633 ft 249 kts 194°
2026-04-22 11:19 30.55902 -9.25213 9292 ft 248 kts 165°
2026-04-22 11:19 30.54358 -9.24355 9043 ft 249 kts 146°
2026-04-22 11:20 30.53168 -9.22881 8744 ft 253 kts 130°
2026-04-22 11:20 30.52168 -9.21192 8419 ft 254 kts 129°
2026-04-22 11:20 30.51111 -9.19565 8126 ft 252 kts 133°
2026-04-22 11:20 30.49956 -9.18036 7834 ft 251 kts 137°
2026-04-22 11:21 30.48701 -9.16639 7536 ft 249 kts 141°
2026-04-22 11:21 30.47361 -9.15375 7257 ft 248 kts 145°
2026-04-22 11:21 30.45953 -9.14229 6980 ft 247 kts 148°
2026-04-22 11:21 30.44493 -9.13202 6709 ft 245 kts 152°
2026-04-22 11:22 30.42983 -9.12291 6448 ft 244 kts 155°
2026-04-22 11:22 30.41428 -9.11503 6167 ft 244 kts 158°
2026-04-22 11:22 30.39832 -9.10841 5879 ft 243 kts 162°
2026-04-22 11:22 30.38203 -9.10307 5601 ft 243 kts 166°
2026-04-22 11:23 30.36551 -9.09903 5338 ft 242 kts 169°
2026-04-22 11:23 30.34909 -9.09618 5224 ft 234 kts 173°
2026-04-22 11:23 30.33331 -9.09858 5092 ft 230 kts 204°
2026-04-22 11:23 30.32125 -9.11033 4924 ft 235 kts 235°
2026-04-22 11:24 30.31672 -9.12873 4646 ft 242 kts 263°
2026-04-22 11:24 30.31649 -9.14821 4299 ft 241 kts 268°
2026-04-22 11:24 30.31694 -9.16725 3964 ft 232 kts 268°
2026-04-22 11:24 30.31742 -9.18556 3663 ft 223 kts 269°
2026-04-22 11:25 30.31782 -9.20317 3392 ft 215 kts 270°
2026-04-22 11:25 30.31821 -9.22015 3134 ft 206 kts 270°
2026-04-22 11:25 30.31857 -9.23616 2881 ft 197 kts 270°
2026-04-22 11:25 30.31891 -9.25161 2611 ft 187 kts 270°
2026-04-22 11:26 30.31923 -9.26624 2353 ft 176 kts 270°
2026-04-22 11:26 30.31955 -9.28002 2146 ft 170 kts 270°
2026-04-22 11:26 30.31985 -9.29331 1913 ft 160 kts 270°
2026-04-22 11:26 30.32013 -9.30551 1719 ft 146 kts 270°
2026-04-22 11:27 30.32038 -9.31674 1542 ft 139 kts 270°
2026-04-22 11:27 30.32064 -9.32809 1357 ft 143 kts 270°
2026-04-22 11:27 30.32090 -9.33941 1168 ft 137 kts 269°
2026-04-22 11:27 30.32115 -9.35039 1018 ft 140 kts 270°
2026-04-22 11:28 30.32146 -9.36161 856 ft 138 kts 268°
2026-04-22 11:28 30.32166 -9.37276 675 ft 141 kts 269°
2026-04-22 11:28 30.32195 -9.38480 492 ft 157 kts 268°
2026-04-22 11:28 30.32231 -9.39758 255 ft 159 kts 270°
2026-04-22 11:29 30.32257 -9.40923 230 ft 125 kts 272°
2026-04-22 11:29 30.32276 -9.41704 230 ft 51 kts 271°
2026-04-22 11:29 30.32284 -9.42095 230 ft 37 kts 272°
2026-04-22 11:29 30.32291 -9.42375 230 ft 30 kts 271°
2026-04-22 11:30 30.32296 -9.42578 230 ft 23 kts 271°
2026-04-22 11:30 30.32301 -9.42732 230 ft 16 kts 281°
2026-04-22 11:30 30.32383 -9.42801 230 ft 16 kts
2026-04-22 11:30 30.32456 -9.42795 230 ft 4 kts
2026-04-22 11:31 30.32478 -9.42778 232 ft 5 kts 49°
2026-04-22 11:31 30.32489 -9.42724 230 ft 8 kts 87°
2026-04-22 11:31 30.32488 -9.42660 230 ft 8 kts 92°
2026-04-22 11:31 30.32485 -9.42597 230 ft 8 kts 93°
2026-04-22 11:32 30.32483 -9.42537 230 ft 7 kts 90°
2026-04-22 11:32 30.32482 -9.42479 230 ft 7 kts 92°
2026-04-22 11:32 30.32480 -9.42415 230 ft 9 kts 92°
2026-04-22 11:32 30.32478 -9.42333 230 ft 12 kts 91°
2026-04-22 11:33 30.32479 -9.42238 230 ft 11 kts 74°
2026-04-22 11:33 30.32537 -9.42195 233 ft 11 kts
2026-04-22 11:33 30.32585 -9.42194 230 ft 10 kts
2026-04-22 11:33 30.32657 -9.42192 230 ft 11 kts
2026-04-22 11:34 30.32735 -9.42189 230 ft 11 kts
2026-04-22 11:34 30.32809 -9.42174 230 ft 11 kts 32°
2026-04-22 11:34 30.32833 -9.42051 230 ft 14 kts 92°
2026-04-22 11:34 30.32830 -9.41938 230 ft 14 kts 91°
2026-04-22 11:35 30.32828 -9.41864 230 ft 13 kts 92°
2026-04-22 11:35 30.32827 -9.41759 230 ft 13 kts 91°
2026-04-22 11:35 30.32823 -9.41657 230 ft 13 kts 92°
2026-04-22 11:35 30.32821 -9.41557 230 ft 12 kts 91°
2026-04-22 11:36 30.32819 -9.41469 230 ft 11 kts 92°
2026-04-22 11:36 30.32817 -9.41396 230 ft 9 kts 91°
2026-04-22 11:36 30.32815 -9.41327 230 ft 8 kts 91°
2026-04-22 11:36 30.32814 -9.41262 230 ft 7 kts 91°
2026-04-22 11:37 30.32814 -9.41217 230 ft 5 kts 75°
2026-04-22 11:37 30.32840 -9.41201 230 ft 4 kts
2026-04-22 11:37 30.32870 -9.41199 230 ft 4 kts
2026-04-22 11:37 30.32886 -9.41198 230 ft 1 kts
2026-04-22 11:38 30.32890 -9.41198 232 ft 0 kts